HST
1 20580U 90037B   24117.68686161  .00011350  00000-0  54929-3 0  9993
2 20580  28.4693 329.9910 0002239 191.2696 168.7846 15.16986266669205
ISS (ZARYA)
1 25544U 98067A   24118.50350111  .00030700  00000-0  53140-3 0  9998
2 25544  51.6394 206.7140 0003646 114.1545 336.7203 15.50650339450684
CXO
1 25867U 99040B   24120.27235969  .00001005  00000-0  00000+0 0  9997
2 25867  40.0637 158.6729 8932772 292.9099   1.1410  0.37811371 25539